Location: Krasnoyarskiy Pitomnik
(51.1333°N, 71.6167°E)
Time: 00:04:20
(UTC+00:00)

Vanguard 1 - Pass Details

Date: 22 April 2024
Orbit: 651 x 3826 km, 34.2° (Epoch: 19 May)

Event Time Altitude Azimuth Distance (km) Brightness Sun altitude
Exits shadow 21:03:21 16° 179° (S) 6,361 13.7 -21.8°
Maximum altitude 21:14:29 24° 146° (SE) 5,425 13.6 -20.9°
Drops below altitude 10° 21:27:27 10° 101° (E) 5,694 14.2 -19.8°
Sets 21:32:20 0° 89° (E) 6,252 14.7 -19.3°
